Regional Weather Roundup
Issued by NWS Midland/Odessa, TX

Skip options and go directly to product.
Home | Oldest Version | Next Version | Current Version | All | Text Only | Save Text | Print | Product List | Glossary On

Skip product version selection by date and time.   
386
ASUS44 KMAF 300101
RWRMAF
MIDLAND AREA WEATHER ROUNDUP
NATIONAL WEATHER SERVICE MIDLAND TX
800 PM CDT FRI JUL 29 2016

...IN SOUTHWEST TEXAS AND SOUTHEAST NEW MEXICO...

CITY           SKY/WX    TMP DP  RH WIND       PRES   REMARKS
ALPINE         CLOUDY    78  59  51 S9        30.15S
ANDREWS        FAIR      90  57  32 S13G20    29.99R
ARTESIA        CLOUDY    91  54  27 SE16      29.99R
BIG SPRING     CLEAR     93  58  31 S10       29.98R
CARLSBAD       MOSUNNY   92  56  29 SE17G24   29.96R
DRYDEN           N/A     87  64  46 SE10G18   29.95F
FORT STOCKTON  CLEAR     88  60  38 SE15G25   29.98S
GUAD PASS      SUNNY     82  52  35 E21       30.14R
HOBBS          CLEAR     90  54  29 SE15      30.02R
MARFA          CLOUDY    70  65  84 E5        30.14S
MIDLAND AIRPK  CLEAR     92  57  30 SE16G23   29.97R
MIDLAND INTL   CLEAR     93  58  30 S20       29.96S
ODESSA         CLEAR     92  57  30 S17       29.98R
PECOS          CLEAR     94  56  28 E15G23    29.93R
PRESIDIO       FAIR      85  64  49 SE9       29.97S
SEMINOLE       CLEAR     90  55  29 SE13      30.00S
SNYDER           N/A     92  60  34 SE9       29.96R
WINK           CLEAR     92  57  30 SE15      29.94S
$$
...OTHER STATIONS IN TEXAS...

CITY           SKY/WX    TMP DP  RH WIND       PRES   REMARKS
ABILENE        CLEAR     90  68  48 E8        29.94F
AMARILLO       CLEAR     86  60  41 SE15      30.04R
AUSTIN         PTCLDY    91  72  53 SE7       29.91F
BROWNSVILLE    CLEAR     86  74  67 SE13      29.93R
CORPUS CHRISTI PTCLDY    86  76  71 SE14      29.93R
DALLAS FTW     PTCLDY    92  65  40 S7        29.89S
DEL RIO        CLEAR     92  65  40 S10       29.90S
EL PASO        PTSUNNY   94  49  21 E17       29.96R
HOUSTON INT    PTCLDY    87  73  62 S9        29.95R
LUBBOCK        PTCLDY    91  57  31 S13       30.00R
SAN ANGELO     CLEAR     93  60  33 SE8       29.93R
SAN ANTONIO    CLOUDY    88  68  51 SE10      29.94S
WACO           CLEAR     92  68  45 CALM      29.90S
WICHITA FALLS  NOT AVBL
$$
...OTHER LOCATIONS IN NEW MEXICO...

CITY           SKY/WX    TMP DP  RH WIND       PRES   REMARKS
ALAMAGORDO     CLOUDY    86  48  26 NE12      30.01R
ALBUQUERQUE    TSTM      70  61  73 E14       30.20F
CANNON AFB     SUNNY     88  54  30 S12       30.06R
CLOVIS         MOSUNNY   88  55  33 S17       30.06R
HOLLOMAN AFB   CLOUDY    94  46  19 S18       29.97R
ROSWELL        CLOUDY    92  51  24 S10       29.98R
RUIDOSO          N/A     79  45  29 SE15      30.26R
SANTA FE       CLOUDY    70  47  43 S15       30.16F
TRUTH OR CONSE CLOUDY    82  48  30 NW21G29   30.06S
TUCUMCARI      CLOUDY    86  47  25 NW29      30.02R
$$

USA.gov is the U.S. government's official web portal to all federal, state and local government web resources and services.